Torna al catalogo

ARIANE 44L R/B

AttivoGTO
NORAD 21815·ROCKET BODY·🇫🇷 France

Lanciato Dec 16, 1991 da Guiana Space Centre

Loading…

TLE

In scadenzaSource: Space-Track

Epoca: Sep 14, 2026, 07:26 UTC

1 21815U 91084C   26257.30985193  .00000093  00000-0  30149-3 0  9991
2 21815   3.6852 122.6011 7167744 326.1636   4.1597  2.34826579290990

Traccia ARIANE 44L R/B in tempo reale con AllMySat

Download on the App Store